CZ-6A DEB, 54888

Orbit data source: Space-Track

CZ-6A DEB, 54888 is space debris in SSO originally from a launch on Fri, 11 Nov 2022 UTC launched from the Taiyaun Space Center, China (TSC). Debris objects in space refer to the collection of defunct objects orbiting the Earth. Examples of debris include non-operational satellites, rocket bodies, and fragments generated from explosions, collisions, or faulty payload assembly.

Loading next visibility...
Identifier
54888, 2022-151PZ
Orbit
SSO
Country
Flag of CNCN / PRC
Related business
Manufacturer
SAST
Mission
Spacecraft
Bus & Motor
Unknown
Mass
Unknown
Launch date (UTC)
2022-11-11 (4 years ago)
Launch vehicle
Unknown
Launch site
Taiyaun Space Center, China (TSC)
Object type
Payload
Rocket body
Debris
Shape & HBR
Unknown shape, 0.1 m
Radar Cross Section
Medium (>0.1 m² and <1 m²)

Expand to show TLE details & history
Last TLE update: 3 days ago

TLE from 3 days ago
0 CZ-6A DEB
1 54888U 22151PZ  26170.22451499  .00033645  00000-0  26318-2 0  9999
2 54888  98.6292 270.9824 0058454 158.2891 202.0827 14.99608624192106
Epoch: 2026-06-19T05:23Z
TLE epoch observation values (Epoch: 2026-06-19T05:23:18.095Z)
Latitude
0.00002°
Longitude
-77.29956°
Altitude
608.796 km
Speed
7.534 km/s
True Right ascension
18h 03m 55s
True Declination
0° 00' 00"
Sunlit
Object was in full shadow at epoch
Visualization orbit readout
Latitude
Unknown
Longitude
Unknown
Altitude
Unknown
Speed
Unknown
Apparent Right ascension
Unknown
Apparent Declination
Unknown
Sunlit
N/A
Visualization observer readout
Local Sidereal Time
21:35:31
Azimuth
Unknown
Elevation
Unknown
Doppler factor
Unknown
Orbital elements
Apogee altitude
605.74 km
Perigee altitude
524.567 km
Semi-major axis
6,943.291 km
Eccentricity
0.00585
Inclination
98.6292°
RAAN
270.9824°
Arg. of periapsis
158.2891°
True anomaly
201.83257°
Mean anomaly
202.0827°
Eccentric anomaly
201.95747°
Mean motion
3.75142 °/min
Orbital period
95.96 mins
BSTAR
0.0026318
Loading maneuver chart data...
Computing Atmospheric mass density...
Loading historical data...
Loading historical data...
Loading historical data...
Loading historical data...
Loading historical data...
Loading historical data...
Loading historical data...

Documentation

Showing up to 5 results
|